,,,PA_Meas_PMT16A,,PR_Meas_QMR101_102,,RH_Meas_QMH101,,SR_Meas_QMS101,,TA_Meas_QMH101,,GenWind,,GenWind,
date,time,status,PA,status,PR,status,RH,status,SR,status,TA,status,DirAvg,status,SpdAvg,
2008-10-16, 00:00:05,VALID,1002.78,VALID,0,VALID,93.202,VALID,0,VALID,24.015,VALID,4,VALID,0.367578,
2008-10-16, 00:01:05,VALID,1002.75,VALID,0,VALID,93.1486,VALID,0,VALID,23.9955,VALID,4,VALID,0.430469,
2008-10-16, 00:02:05,VALID,1002.74,VALID,0,VALID,93.2402,VALID,0,VALID,23.9955,VALID,4,VALID,0.504297,
2008-10-16, 00:03:05,VALID,1002.7,VALID,0,VALID,93.2249,VALID,0,VALID,23.9761,VALID,4,VALID,0.465625,
2008-10-16, 00:04:05,VALID,1002.66,VALID,0,VALID,93.08,VALID,0,VALID,23.9371,VALID,4,VALID,0.438672,
2008-10-16, 00:05:05,VALID,1002.65,VALID,0,VALID,93.1181,VALID,0.100563,VALID,23.8964,VALID,4,VALID,0.472656,
2008-10-16, 00:06:05,VALID,1002.63,VALID,0,VALID,93.1257,VALID,0,VALID,23.8964,VALID,4,VALID,0.436719,
2008-10-16, 00:07:05,VALID,1002.59,VALID,0,VALID,93.1486,VALID,0,VALID,23.8769,VALID,4,VALID,0.526563,
2008-10-16, 00:08:05,VALID,1002.53,VALID,0,VALID,93.0876,VALID,0,VALID,23.8982,VALID,4,VALID,0.448828,
2008-10-16, 00:09:05,VALID,1002.54,VALID,0,VALID,93.1257,VALID,0,VALID,23.9,VALID,4,VALID,0.330859,
2008-10-16, 00:10:05,VALID,1002.54,VALID,0,VALID,93.1334,VALID,0,VALID,23.8805,VALID,4,VALID,0.305078,
2008-10-16, 00:11:05,VALID,1002.56,VALID,0,VALID,93.1257,VALID,0,VALID,23.8611,VALID,4,VALID,0.155469,
2008-10-16, 00:12:05,VALID,1002.54,VALID,0,VALID,93.1715,VALID,0,VALID,23.8611,VALID,4,VALID,0,
2008-10-16, 00:13:05,VALID,1002.56,VALID,0,VALID,93.1791,VALID,0,VALID,23.8611,VALID,4,VALID,0,
2008-10-16, 00:14:05,VALID,1002.55,VALID,0,VALID,93.2478,VALID,0,VALID,23.8398,VALID,4,VALID,0.00351562,
2008-10-16, 00:15:05,VALID,1002.56,VALID,0,VALID,93.2554,VALID,0,VALID,23.8611,VALID,4,VALID,0.190234,
2008-10-16, 00:16:05,VALID,1002.59,VALID,0,VALID,93.2707,VALID,0,VALID,23.8203,VALID,4,VALID,0.0871094,
2008-10-16, 00:17:05,VALID,1002.58,VALID,0,VALID,93.2554,VALID,0,VALID,23.8203,VALID,4,VALID,0,
2008-10-16, 00:18:05,VALID,1002.59,VALID,0,VALID,93.3088,VALID,0,VALID,23.8221,VALID,4,VALID,0,
2008-10-16, 00:19:05,VALID,1002.61,VALID,0,VALID,93.3088,VALID,0,VALID,23.8027,VALID,4,VALID,0,
2008-10-16, 00:20:05,VALID,1002.59,VALID,0,VALID,93.2859,VALID,0,VALID,23.8027,VALID,4,VALID,0,
2008-10-16, 00:21:05,VALID,1002.59,VALID,0,VALID,93.347,VALID,0,VALID,23.7832,VALID,4,VALID,0,
2008-10-16, 00:22:05,VALID,1002.61,VALID,0,VALID,93.347,VALID,0,VALID,23.7637,VALID,4,VALID,0,
2008-10-16, 00:23:05,VALID,1002.62,VALID,0,VALID,93.3928,VALID,0,VALID,23.7637,VALID,4,VALID,0.280469,
2008-10-16, 00:24:05,VALID,1002.58,VALID,0,VALID,93.3851,VALID,0,VALID,23.7443,VALID,4,VALID,0.460547,
2008-10-16, 00:25:05,VALID,1002.58,VALID,0,VALID,93.4767,VALID,0,VALID,23.7443,VALID,4,VALID,0.432031,
2008-10-16, 00:26:05,VALID,1002.58,VALID,0,VALID,93.5377,VALID,0,VALID,23.7425,VALID,4,VALID,0.465625,
2008-10-16, 00:27:05,VALID,1002.58,VALID,0,VALID,93.4919,VALID,0,VALID,23.7425,VALID,4,VALID,0.480859,
2008-10-16, 00:28:05,VALID,1002.59,VALID,0,VALID,93.4767,VALID,0,VALID,23.723,VALID,4,VALID,0.477734,
2008-10-16, 00:29:05,VALID,1002.61,VALID,0,VALID,93.469,VALID,0,VALID,23.7053,VALID,4,VALID,0.311328,
2008-10-16, 00:30:05,VALID,1002.61,VALID,0,VALID,93.4919,VALID,0.100563,VALID,23.6628,VALID,4,VALID,0.377344,
2008-10-16, 00:31:05,VALID,1002.62,VALID,0,VALID,93.4996,VALID,0,VALID,23.6646,VALID,4,VALID,0.458594,
2008-10-16, 00:32:05,VALID,1002.58,VALID,0,VALID,93.5682,VALID,0,VALID,23.6452,VALID,4,VALID,0.430078,
2008-10-16, 00:33:05,VALID,1002.59,VALID,0,VALID,93.5911,VALID,0,VALID,23.6044,VALID,4,VALID,0.421875,
2008-10-16, 00:34:05,VALID,1002.58,VALID,0,VALID,93.6674,VALID,0,VALID,23.585,VALID,4,VALID,0.429297,
2008-10-16, 00:35:05,VALID,1002.57,VALID,0,VALID,93.7132,VALID,0,VALID,23.6257,VALID,4,VALID,0.441016,
2008-10-16, 00:36:05,VALID,1002.57,VALID,0,VALID,93.7284,VALID,0.100563,VALID,23.6062,VALID,4,VALID,0.261719,
2008-10-16, 00:37:05,VALID,1002.56,VALID,0,VALID,93.7589,VALID,0.100563,VALID,23.6257,VALID,4,VALID,0,
2008-10-16, 00:38:05,VALID,1002.56,VALID,0,VALID,93.7361,VALID,0,VALID,23.6257,VALID,4,VALID,0,
2008-10-16, 00:39:05,VALID,1002.57,VALID,0,VALID,93.7666,VALID,0,VALID,23.6062,VALID,4,VALID,0,
2008-10-16, 00:40:05,VALID,1002.55,VALID,0,VALID,93.8123,VALID,0,VALID,23.6062,VALID,4,VALID,0,
2008-10-16, 00:41:05,VALID,1002.57,VALID,0,VALID,93.7971,VALID,0,VALID,23.6275,VALID,4,VALID,0,
2008-10-16, 00:42:05,VALID,1002.57,VALID,0,VALID,93.7589,VALID,0,VALID,23.5673,VALID,4,VALID,0,
2008-10-16, 00:43:05,VALID,1002.53,VALID,0,VALID,93.7589,VALID,0,VALID,23.5885,VALID,4,VALID,0,
2008-10-16, 00:44:05,VALID,1002.56,VALID,0,VALID,93.7361,VALID,0,VALID,23.5885,VALID,4,VALID,0,
2008-10-16, 00:45:05,VALID,1002.55,VALID,0,VALID,93.8123,VALID,0,VALID,23.5885,VALID,4,VALID,0,
2008-10-16, 00:46:05,VALID,1002.54,VALID,0,VALID,93.8123,VALID,0,VALID,23.5691,VALID,4,VALID,0,
2008-10-16, 00:47:05,VALID,1002.56,VALID,0,VALID,93.8352,VALID,0,VALID,23.5478,VALID,4,VALID,0,
2008-10-16, 00:48:05,VALID,1002.53,VALID,0,VALID,93.8047,VALID,0,VALID,23.5691,VALID,4,VALID,0,
2008-10-16, 00:49:05,VALID,1002.53,VALID,0,VALID,93.8047,VALID,0,VALID,23.5284,VALID,4,VALID,0,
2008-10-16, 00:50:05,VALID,1002.52,VALID,0,VALID,93.82,VALID,0,VALID,23.5496,VALID,4,VALID,0,
2008-10-16, 00:51:05,VALID,1002.5,VALID,0,VALID,93.7971,VALID,0,VALID,23.5302,VALID,4,VALID,0.186328,
2008-10-16, 00:52:05,VALID,1002.47,VALID,0,VALID,93.7818,VALID,0,VALID,23.4894,VALID,4,VALID,0.199609,
2008-10-16, 00:53:05,VALID,1002.46,VALID,0,VALID,93.7513,VALID,0,VALID,23.5107,VALID,4,VALID,0.342969,
2008-10-16, 00:54:05,VALID,1002.44,VALID,0,VALID,93.7742,VALID,0,VALID,23.4912,VALID,5,VALID,0.284375,
2008-10-16, 00:55:05,VALID,1002.42,VALID,0,VALID,93.7666,VALID,0,VALID,23.4523,VALID,5,VALID,0.232812,
2008-10-16, 00:56:05,VALID,1002.42,VALID,0,VALID,93.7666,VALID,0,VALID,23.4328,VALID,5,VALID,0.142969,
2008-10-16, 00:57:05,VALID,1002.4,VALID,0,VALID,93.82,VALID,0,VALID,23.4134,VALID,5,VALID,0,
2008-10-16, 00:58:05,VALID,1002.43,VALID,0,VALID,93.8429,VALID,0,VALID,23.4328,VALID,5,VALID,0.0914062,
2008-10-16, 00:59:05,VALID,1002.4,VALID,0,VALID,93.8581,VALID,0,VALID,23.4328,VALID,5,VALID,0,
2008-10-16, 01:00:05,VALID,1002.4,VALID,0,VALID,93.8352,VALID,0,VALID,23.3921,VALID,5,VALID,0.150391,
2008-10-16, 01:01:05,VALID,1002.44,VALID,0,VALID,93.8734,VALID,0,VALID,23.4134,VALID,5,VALID,0.191797,
2008-10-16, 01:02:05,VALID,1002.42,VALID,0,VALID,93.942,VALID,0,VALID,23.4328,VALID,5,VALID,0.358984,
2008-10-16, 01:03:05,VALID,1002.41,VALID,0,VALID,93.942,VALID,0,VALID,23.4328,VALID,5,VALID,0.375781,
2008-10-16, 01:04:05,VALID,1002.39,VALID,0,VALID,93.9802,VALID,0,VALID,23.4328,VALID,5,VALID,0.280859,
2008-10-16, 01:05:05,VALID,1002.42,VALID,0,VALID,93.9878,VALID,0,VALID,23.4134,VALID,5,VALID,0.436328,
2008-10-16, 01:06:05,VALID,1002.42,VALID,0,VALID,94.0031,VALID,0,VALID,23.4328,VALID,5,VALID,0.357422,
2008-10-16, 01:07:05,VALID,1002.37,VALID,0,VALID,94.0031,VALID,0,VALID,23.4134,VALID,5,VALID,0.409375,
2008-10-16, 01:08:05,VALID,1002.4,VALID,0,VALID,93.9725,VALID,0,VALID,23.3727,VALID,5,VALID,0.436719,
2008-10-16, 01:09:05,VALID,1002.41,VALID,0,VALID,94.0107,VALID,0,VALID,23.3939,VALID,5,VALID,0.475391,
2008-10-16, 01:10:05,VALID,1002.4,VALID,0,VALID,94.0107,VALID,0,VALID,23.3744,VALID,5,VALID,0.372266,
2008-10-16, 01:11:05,VALID,1002.41,VALID,0,VALID,93.9878,VALID,0,VALID,23.3532,VALID,5,VALID,0.419141,
2008-10-16, 01:12:05,VALID,1002.4,VALID,0,VALID,93.9954,VALID,0,VALID,23.3337,VALID,5,VALID,0.221094,
2008-10-16, 01:13:05,VALID,1002.42,VALID,0,VALID,94.0183,VALID,0,VALID,23.3143,VALID,5,VALID,0.315234,
2008-10-16, 01:14:05,VALID,1002.41,VALID,0,VALID,94.0412,VALID,0,VALID,23.3143,VALID,5,VALID,0.224219,
2008-10-16, 01:15:05,VALID,1002.39,VALID,0,VALID,94.0717,VALID,0,VALID,23.3143,VALID,5,VALID,0.207813,
2008-10-16, 01:16:05,VALID,1002.35,VALID,0,VALID,94.1022,VALID,0,VALID,23.3143,VALID,5,VALID,0.325781,
2008-10-16, 01:17:05,VALID,1002.37,VALID,0,VALID,94.1099,VALID,0,VALID,23.3143,VALID,5,VALID,0.305078,
2008-10-16, 01:18:05,VALID,1002.35,VALID,0,VALID,94.1251,VALID,0,VALID,23.3355,VALID,5,VALID,0.323438,
2008-10-16, 01:19:05,VALID,1002.35,VALID,0,VALID,94.1328,VALID,0,VALID,23.3143,VALID,5,VALID,0.50625,
2008-10-16, 01:20:05,VALID,1002.34,VALID,0,VALID,94.1328,VALID,0,VALID,23.3143,VALID,5,VALID,0.511719,
2008-10-16, 01:21:05,VALID,1002.32,VALID,0,VALID,94.1633,VALID,0,VALID,23.3355,VALID,5,VALID,0.519531,
2008-10-16, 01:22:05,VALID,1002.35,VALID,0,VALID,94.2167,VALID,0,VALID,23.3355,VALID,5,VALID,0.558594,
2008-10-16, 01:23:05,VALID,1002.36,VALID,0,VALID,94.2396,VALID,0,VALID,23.316,VALID,5,VALID,0.569922,
2008-10-16, 01:24:05,VALID,1002.39,VALID,0,VALID,94.2319,VALID,0.100563,VALID,23.3143,VALID,5,VALID,0.596484,
2008-10-16, 01:25:05,VALID,1002.37,VALID,0,VALID,94.2624,VALID,0.100563,VALID,23.3125,VALID,5,VALID,0.549609,
2008-10-16, 01:26:05,VALID,1002.39,VALID,0,VALID,94.2701,VALID,0.100563,VALID,23.3125,VALID,5,VALID,0.523438,
2008-10-16, 01:27:05,VALID,1002.37,VALID,0,VALID,94.2777,VALID,0.100563,VALID,23.3143,VALID,5,VALID,0.530859,
2008-10-16, 01:28:04,VALID,1002.39,VALID,0,VALID,94.2701,VALID,0.100563,VALID,23.3143,VALID,5,VALID,0.541016,
2008-10-16, 01:29:04,VALID,1002.37,VALID,0,VALID,94.2548,VALID,0,VALID,23.3143,VALID,5,VALID,0.633203,
2008-10-16, 01:30:04,VALID,1002.35,VALID,0,VALID,94.2624,VALID,0.100563,VALID,23.2948,VALID,5,VALID,0.648047,
2008-10-16, 01:31:04,VALID,1002.34,VALID,0,VALID,94.2853,VALID,0.100563,VALID,23.2931,VALID,5,VALID,0.625,
2008-10-16, 01:32:04,VALID,1002.35,VALID,0,VALID,94.3082,VALID,0.100563,VALID,23.2736,VALID,5,VALID,0.589844,
2008-10-16, 01:33:04,VALID,1002.37,VALID,0,VALID,94.3235,VALID,0,VALID,23.2948,VALID,5,VALID,0.543359,
2008-10-16, 01:34:04,VALID,1002.38,VALID,0,VALID,94.3006,VALID,0,VALID,23.2736,VALID,4,VALID,0.414844,
2008-10-16, 01:35:04,VALID,1002.41,VALID,0,VALID,94.293,VALID,0.100563,VALID,23.2736,VALID,4,VALID,0.492188,
2008-10-16, 01:36:04,VALID,1002.43,VALID,0,VALID,94.293,VALID,0.100563,VALID,23.2347,VALID,4,VALID,0.525781,
2008-10-16, 01:37:04,VALID,1002.46,VALID,0,VALID,94.2624,VALID,0.100563,VALID,23.2559,VALID,4,VALID,0.499219,
2008-10-16, 01:38:04,VALID,1002.44,VALID,0,VALID,94.3082,VALID,0.100563,VALID,23.2152,VALID,4,VALID,0.6625,
2008-10-16, 01:39:04,VALID,1002.45,VALID,0,VALID,94.3082,VALID,0,VALID,23.2382,VALID,4,VALID,0.721094,
2008-10-16, 01:40:04,VALID,1002.44,VALID,0,VALID,94.3235,VALID,0,VALID,23.217,VALID,4,VALID,0.651563,
2008-10-16, 01:41:04,VALID,1002.43,VALID,0,VALID,94.3387,VALID,0,VALID,23.2382,VALID,4,VALID,0.507813,
2008-10-16, 01:42:04,VALID,1002.41,VALID,0,VALID,94.354,VALID,0,VALID,23.2187,VALID,4,VALID,0.578125,
2008-10-16, 01:43:04,VALID,1002.41,VALID,0,VALID,94.3921,VALID,0,VALID,23.2187,VALID,4,VALID,0.569141,
2008-10-16, 01:44:04,VALID,1002.4,VALID,0,VALID,94.415,VALID,0,VALID,23.217,VALID,4,VALID,0.531641,
2008-10-16, 01:45:04,VALID,1002.4,VALID,0,VALID,94.3921,VALID,0,VALID,23.1975,VALID,4,VALID,0.480859,
2008-10-16, 01:46:04,VALID,1002.4,VALID,0,VALID,94.3921,VALID,0,VALID,23.1993,VALID,4,VALID,0.501953,
2008-10-16, 01:47:04,VALID,1002.4,VALID,0,VALID,94.3998,VALID,0,VALID,23.1993,VALID,4,VALID,0.504297,
2008-10-16, 01:48:04,VALID,1002.36,VALID,0,VALID,94.415,VALID,0,VALID,23.178,VALID,4,VALID,0.463672,
2008-10-16, 01:49:04,VALID,1002.36,VALID,0,VALID,94.4455,VALID,0,VALID,23.178,VALID,4,VALID,0.560156,
2008-10-16, 01:50:04,VALID,1002.34,VALID,0,VALID,94.4303,VALID,0,VALID,23.1586,VALID,4,VALID,0.647656,
2008-10-16, 01:51:04,VALID,1002.34,VALID,0,VALID,94.4074,VALID,0,VALID,23.1586,VALID,4,VALID,0.655078,
2008-10-16, 01:52:04,VALID,1002.35,VALID,0,VALID,94.415,VALID,0,VALID,23.1603,VALID,359,VALID,0.519922,
2008-10-16, 01:53:04,VALID,1002.34,VALID,0,VALID,94.4227,VALID,0,VALID,23.1391,VALID,353,VALID,0.508984,
2008-10-16, 01:54:04,VALID,1002.38,VALID,0,VALID,94.4379,VALID,0,VALID,23.1603,VALID,353,VALID,0.441797,
2008-10-16, 01:55:04,VALID,1002.39,VALID,0,VALID,94.415,VALID,0,VALID,23.1603,VALID,353,VALID,0.278125,
2008-10-16, 01:56:04,VALID,1002.43,VALID,0,VALID,94.4379,VALID,0,VALID,23.1391,VALID,353,VALID,0.272656,
2008-10-16, 01:57:04,VALID,1002.4,VALID,0,VALID,94.4379,VALID,0,VALID,23.1391,VALID,353,VALID,0.223438,
2008-10-16, 01:58:04,VALID,1002.42,VALID,0,VALID,94.4379,VALID,0,VALID,23.1586,VALID,353,VALID,0,
2008-10-16, 01:59:04,VALID,1002.43,VALID,0,VALID,94.4227,VALID,0,VALID,23.1603,VALID,353,VALID,0,
2008-10-16, 02:00:04,VALID,1002.41,VALID,0,VALID,94.4303,VALID,0,VALID,23.1391,VALID,353,VALID,0,
2008-10-16, 02:01:04,VALID,1002.39,VALID,0,VALID,94.4303,VALID,0,VALID,23.1586,VALID,353,VALID,0,
2008-10-16, 02:02:04,VALID,1002.38,VALID,0,VALID,94.4074,VALID,0,VALID,23.1586,VALID,353,VALID,0.0789063,
2008-10-16, 02:03:04,VALID,1002.37,VALID,0,VALID,94.3769,VALID,0,VALID,23.1586,VALID,353,VALID,0.696484,
2008-10-16, 02:04:04,VALID,1002.37,VALID,0,VALID,94.3845,VALID,0,VALID,23.1586,VALID,353,VALID,0.429688,
2008-10-16, 02:05:04,VALID,1002.35,VALID,0,VALID,94.3464,VALID,0,VALID,23.178,VALID,353,VALID,0.46875,
2008-10-16, 02:06:04,VALID,1002.37,VALID,0,VALID,94.3235,VALID,0,VALID,23.178,VALID,353,VALID,0.447656,
2008-10-16, 02:07:04,VALID,1002.37,VALID,0,VALID,94.2624,VALID,0.100563,VALID,23.1763,VALID,353,VALID,0.392969,
2008-10-16, 02:08:04,VALID,1002.37,VALID,0,VALID,94.2472,VALID,0,VALID,23.1975,VALID,353,VALID,0.536328,
2008-10-16, 02:09:04,VALID,1002.36,VALID,0,VALID,94.2014,VALID,0,VALID,23.178,VALID,353,VALID,0.298828,
2008-10-16, 02:10:04,VALID,1002.34,VALID,0,VALID,94.1709,VALID,0,VALID,23.2382,VALID,353,VALID,0.373047,
2008-10-16, 02:11:04,VALID,1002.32,VALID,0,VALID,94.1251,VALID,0,VALID,23.217,VALID,353,VALID,0.414063,
2008-10-16, 02:12:04,VALID,1002.27,VALID,0,VALID,94.0946,VALID,0,VALID,23.2559,VALID,353,VALID,0.517578,
2008-10-16, 02:13:04,VALID,1002.25,VALID,0,VALID,94.0031,VALID,0,VALID,23.2559,VALID,353,VALID,0.291406,
2008-10-16, 02:14:04,VALID,1002.21,VALID,0,VALID,93.8734,VALID,0,VALID,23.2559,VALID,353,VALID,0.439453,
2008-10-16, 02:15:04,VALID,1002.23,VALID,0,VALID,93.8047,VALID,0,VALID,23.2559,VALID,353,VALID,0.614844,
2008-10-16, 02:16:04,VALID,1002.21,VALID,0,VALID,93.7895,VALID,0,VALID,23.2559,VALID,354,VALID,0.590625,
2008-10-16, 02:17:04,VALID,1002.19,VALID,0,VALID,93.7971,VALID,0,VALID,23.2577,VALID,352,VALID,0.444141,
2008-10-16, 02:18:04,VALID,1002.16,VALID,0,VALID,93.7742,VALID,0,VALID,23.2382,VALID,352,VALID,0.523438,
2008-10-16, 02:19:04,VALID,1002.2,VALID,0,VALID,93.7361,VALID,0,VALID,23.2577,VALID,352,VALID,0.332812,
2008-10-16, 02:20:04,VALID,1002.18,VALID,0,VALID,93.7055,VALID,0,VALID,23.2364,VALID,352,VALID,0.262109,
2008-10-16, 02:21:04,VALID,1002.21,VALID,0,VALID,93.675,VALID,0,VALID,23.2559,VALID,352,VALID,0.275391,
2008-10-16, 02:22:04,VALID,1002.21,VALID,0,VALID,93.5987,VALID,0,VALID,23.2559,VALID,352,VALID,0.43125,
2008-10-16, 02:23:04,VALID,1002.21,VALID,0,VALID,93.5377,VALID,0,VALID,23.2559,VALID,353,VALID,0.577734,
2008-10-16, 02:24:04,VALID,1002.2,VALID,0,VALID,93.5987,VALID,0,VALID,23.2559,VALID,352,VALID,0.510156,
2008-10-16, 02:25:04,VALID,1002.19,VALID,0,VALID,93.6521,VALID,0,VALID,23.2966,VALID,352,VALID,0.383594,
2008-10-16, 02:26:04,VALID,1002.21,VALID,0,VALID,93.6521,VALID,0,VALID,23.2754,VALID,352,VALID,0.475,
2008-10-16, 02:27:04,VALID,1002.2,VALID,0,VALID,93.5682,VALID,0,VALID,23.2754,VALID,352,VALID,0.282031,
2008-10-16, 02:28:04,VALID,1002.2,VALID,0,VALID,93.4767,VALID,0,VALID,23.2754,VALID,353,VALID,0.406641,
2008-10-16, 02:29:04,VALID,1002.19,VALID,0,VALID,93.4767,VALID,0,VALID,23.2948,VALID,353,VALID,0.332031,
2008-10-16, 02:30:04,VALID,1002.15,VALID,0,VALID,93.408,VALID,0,VALID,23.3355,VALID,353,VALID,0.378906,
2008-10-16, 02:31:04,VALID,1002.18,VALID,0,VALID,93.3928,VALID,0,VALID,23.3532,VALID,353,VALID,0.410156,
2008-10-16, 02:32:04,VALID,1002.18,VALID,0,VALID,93.3241,VALID,0,VALID,23.3921,VALID,353,VALID,0.367969,
2008-10-16, 02:33:04,VALID,1002.18,VALID,0,VALID,93.3088,VALID,0,VALID,23.4328,VALID,353,VALID,0.355859,
2008-10-16, 02:34:04,VALID,1002.19,VALID,0,VALID,93.1639,VALID,0,VALID,23.4328,VALID,353,VALID,0.366016,
2008-10-16, 02:35:04,VALID,1002.2,VALID,0,VALID,93.1257,VALID,0,VALID,23.4328,VALID,353,VALID,0.449219,
2008-10-16, 02:36:04,VALID,1002.15,VALID,0,VALID,93.0418,VALID,0,VALID,23.4328,VALID,353,VALID,0.459766,
2008-10-16, 02:37:04,VALID,1002.18,VALID,0,VALID,92.9961,VALID,0,VALID,23.4523,VALID,353,VALID,0.413672,
2008-10-16, 02:38:04,VALID,1002.17,VALID,0,VALID,93.1181,VALID,0,VALID,23.47,VALID,353,VALID,0.515625,
2008-10-16, 02:39:04,VALID,1002.16,VALID,0,VALID,93.141,VALID,0,VALID,23.4505,VALID,353,VALID,0.573438,
2008-10-16, 02:40:04,VALID,1002.15,VALID,0,VALID,93.0571,VALID,0,VALID,23.47,VALID,355,VALID,0.692969,
2008-10-16, 02:41:04,VALID,1002.15,VALID,0,VALID,93.08,VALID,0,VALID,23.4505,VALID,355,VALID,0.591797,
2008-10-16, 02:42:04,VALID,1002.15,VALID,0,VALID,93.0952,VALID,0,VALID,23.4718,VALID,355,VALID,0.490234,
2008-10-16, 02:43:04,VALID,1002.14,VALID,0,VALID,93.1334,VALID,0,VALID,23.47,VALID,355,VALID,0.55625,
2008-10-16, 02:44:04,VALID,1002.17,VALID,0,VALID,93.1868,VALID,0,VALID,23.4894,VALID,355,VALID,0.512109,
2008-10-16, 02:45:04,VALID,1002.18,VALID,0,VALID,92.9961,VALID,0,VALID,23.4894,VALID,355,VALID,0.236719,
2008-10-16, 02:46:04,VALID,1002.17,VALID,0,VALID,92.874,VALID,0,VALID,23.5107,VALID,355,VALID,0.139453,
2008-10-16, 02:47:04,VALID,1002.15,VALID,0,VALID,92.8511,VALID,0,VALID,23.5478,VALID,355,VALID,0.352734,
2008-10-16, 02:48:04,VALID,1002.15,VALID,0,VALID,92.874,VALID,0,VALID,23.608,VALID,355,VALID,0.342969,
2008-10-16, 02:49:04,VALID,1002.15,VALID,0,VALID,92.8587,VALID,0,VALID,23.6469,VALID,355,VALID,0.426172,
2008-10-16, 02:50:04,VALID,1002.14,VALID,0,VALID,92.9274,VALID,0,VALID,23.6859,VALID,355,VALID,0.353516,
2008-10-16, 02:51:04,VALID,1002.15,VALID,0,VALID,92.7824,VALID,0,VALID,23.7053,VALID,356,VALID,0.521094,
2008-10-16, 02:52:04,VALID,1002.13,VALID,0,VALID,92.8053,VALID,0,VALID,23.6823,VALID,357,VALID,0.407031,
2008-10-16, 02:53:04,VALID,1002.12,VALID,0,VALID,92.7977,VALID,0,VALID,23.7248,VALID,357,VALID,0.403125,
2008-10-16, 02:54:04,VALID,1002.1,VALID,0,VALID,92.6756,VALID,0,VALID,23.723,VALID,357,VALID,0.521875,
2008-10-16, 02:55:04,VALID,1002.1,VALID,0,VALID,92.6833,VALID,0,VALID,23.7443,VALID,357,VALID,0.505469,
2008-10-16, 02:56:04,VALID,1002.11,VALID,0,VALID,92.607,VALID,0,VALID,23.723,VALID,4,VALID,0.536719,
2008-10-16, 02:57:04,VALID,1002.08,VALID,0,VALID,92.6756,VALID,0,VALID,23.7443,VALID,4,VALID,0.344531,
2008-10-16, 02:58:04,VALID,1002.08,VALID,0,VALID,92.668,VALID,0,VALID,23.7425,VALID,4,VALID,0.357031,
2008-10-16, 02:59:04,VALID,1002.12,VALID,0,VALID,92.6528,VALID,0,VALID,23.7425,VALID,4,VALID,0.123047,
2008-10-16, 03:00:04,VALID,1002.09,VALID,0,VALID,92.5078,VALID,0,VALID,23.7443,VALID,4,VALID,0.277344,
2008-10-16, 03:01:04,VALID,1002.09,VALID,0,VALID,92.4544,VALID,0,VALID,23.723,VALID,4,VALID,0.0863281,
2008-10-16, 03:02:04,VALID,1002.05,VALID,0,VALID,92.3629,VALID,0,VALID,23.7443,VALID,4,VALID,0.124219,
2008-10-16, 03:03:04,VALID,1002.08,VALID,0,VALID,92.2637,VALID,0,VALID,23.7443,VALID,4,VALID,0,
2008-10-16, 03:04:04,VALID,1002.07,VALID,0,VALID,92.2332,VALID,0,VALID,23.723,VALID,4,VALID,0,
2008-10-16, 03:05:04,VALID,1002.07,VALID,0,VALID,92.1492,VALID,0,VALID,23.7248,VALID,4,VALID,0,
2008-10-16, 03:06:04,VALID,1002.05,VALID,0,VALID,92.1416,VALID,0,VALID,23.7443,VALID,4,VALID,0,
2008-10-16, 03:07:04,VALID,1002.07,VALID,0,VALID,92.1721,VALID,0,VALID,23.7248,VALID,4,VALID,0,
2008-10-16, 03:08:04,VALID,1002.11,VALID,0,VALID,92.195,VALID,0,VALID,23.7035,VALID,4,VALID,0,
2008-10-16, 03:09:04,VALID,1002.07,VALID,0,VALID,92.0501,VALID,0,VALID,23.7035,VALID,4,VALID,0,
2008-10-16, 03:10:04,VALID,1002.1,VALID,0,VALID,92.1187,VALID,0,VALID,23.7443,VALID,4,VALID,0.143359,
2008-10-16, 03:11:04,VALID,1002.11,VALID,0,VALID,92.2713,VALID,0,VALID,23.723,VALID,4,VALID,0,
2008-10-16, 03:12:04,VALID,1002.1,VALID,0,VALID,92.2637,VALID,0,VALID,23.7425,VALID,4,VALID,0.395312,
2008-10-16, 03:13:04,VALID,1002.1,VALID,0,VALID,92.0577,VALID,0,VALID,23.7425,VALID,4,VALID,0.469922,
2008-10-16, 03:14:04,VALID,1002.11,VALID,0,VALID,92.1721,VALID,0,VALID,23.7443,VALID,4,VALID,0.474219,
2008-10-16, 03:15:04,VALID,1002.09,VALID,0,VALID,92.2179,VALID,0,VALID,23.723,VALID,4,VALID,0.565234,
2008-10-16, 03:16:04,VALID,1002.07,VALID,0,VALID,92.2866,VALID,0,VALID,23.7248,VALID,4,VALID,0.467187,
2008-10-16, 03:17:04,VALID,1002.05,VALID,0,VALID,92.4468,VALID,0,VALID,23.7053,VALID,4,VALID,0.245312,
2008-10-16, 03:18:04,VALID,1002.05,VALID,0,VALID,92.4925,VALID,0,VALID,23.6859,VALID,4,VALID,0.18125,
2008-10-16, 03:19:04,VALID,1002.07,VALID,0,VALID,92.5078,VALID,0,VALID,23.6257,VALID,4,VALID,0,
2008-10-16, 03:20:04,VALID,1002.05,VALID,0,VALID,92.4925,VALID,0,VALID,23.6469,VALID,4,VALID,0,
2008-10-16, 03:21:04,VALID,1002.08,VALID,0,VALID,92.5536,VALID,0,VALID,23.6275,VALID,4,VALID,0.109766,
2008-10-16, 03:22:04,VALID,1002.1,VALID,0,VALID,92.5841,VALID,0,VALID,23.5868,VALID,4,VALID,0,
2008-10-16, 03:23:04,VALID,1002.13,VALID,0,VALID,92.5536,VALID,0,VALID,23.5868,VALID,4,VALID,0.202734,
2008-10-16, 03:24:04,VALID,1002.12,VALID,0,VALID,92.5231,VALID,0,VALID,23.5478,VALID,4,VALID,0,
2008-10-16, 03:25:04,VALID,1002.13,VALID,0,VALID,92.4773,VALID,0,VALID,23.5691,VALID,4,VALID,0.134766,
2008-10-16, 03:26:04,VALID,1002.14,VALID,0,VALID,92.1569,VALID,0,VALID,23.5691,VALID,4,VALID,0.502734,
2008-10-16, 03:27:04,VALID,1002.11,VALID,0,VALID,92.1492,VALID,0,VALID,23.5691,VALID,4,VALID,0.540234,
2008-10-16, 03:28:04,VALID,1002.1,VALID,0,VALID,92.1569,VALID,0,VALID,23.5284,VALID,4,VALID,0.229687,
2008-10-16, 03:29:04,VALID,1002.09,VALID,0,VALID,92.1721,VALID,0,VALID,23.5107,VALID,4,VALID,0.310156,
2008-10-16, 03:30:04,VALID,1002.07,VALID,0,VALID,92.34,VALID,0,VALID,23.5089,VALID,4,VALID,0.369531,
2008-10-16, 03:31:04,VALID,1002.05,VALID,0,VALID,92.4163,VALID,0,VALID,23.5089,VALID,4,VALID,0.266797,
2008-10-16, 03:32:04,VALID,1002.08,VALID,0,VALID,92.4925,VALID,0,VALID,23.5089,VALID,4,VALID,0.13125,
2008-10-16, 03:33:04,VALID,1002.07,VALID,0,VALID,92.5154,VALID,0,VALID,23.4912,VALID,4,VALID,0.0707031,
2008-10-16, 03:34:04,VALID,1002.11,VALID,0,VALID,92.5231,VALID,0,VALID,23.4505,VALID,4,VALID,0,
2008-10-16, 03:35:04,VALID,1002.13,VALID,0,VALID,92.5841,VALID,0,VALID,23.4311,VALID,4,VALID,0,
2008-10-16, 03:36:04,VALID,1002.19,VALID,0,VALID,92.6451,VALID,0,VALID,23.4116,VALID,4,VALID,0,
2008-10-16, 03:37:04,VALID,1002.2,VALID,0,VALID,92.6451,VALID,0,VALID,23.3921,VALID,4,VALID,0,
2008-10-16, 03:38:04,VALID,1002.2,VALID,0,VALID,92.6985,VALID,0,VALID,23.3727,VALID,4,VALID,0,
2008-10-16, 03:39:04,VALID,1002.21,VALID,0,VALID,92.7748,VALID,0,VALID,23.3727,VALID,4,VALID,0.299219,
2008-10-16, 03:40:04,VALID,1002.22,VALID,0,VALID,92.6375,VALID,0,VALID,23.3532,VALID,4,VALID,0.474219,
2008-10-16, 03:41:04,VALID,1002.23,VALID,0,VALID,92.7443,VALID,0,VALID,23.3337,VALID,4,VALID,0.328516,
2008-10-16, 03:42:04,VALID,1002.2,VALID,0,VALID,92.7138,VALID,0,VALID,23.3337,VALID,4,VALID,0.0425781,
2008-10-16, 03:43:04,VALID,1002.19,VALID,0,VALID,92.7138,VALID,0,VALID,23.2948,VALID,4,VALID,0,
2008-10-16, 03:44:04,VALID,1002.18,VALID,0,VALID,92.6451,VALID,0,VALID,23.2966,VALID,4,VALID,0.416406,
2008-10-16, 03:45:04,VALID,1002.17,VALID,0,VALID,92.6604,VALID,0,VALID,23.2754,VALID,4,VALID,0.221484,
2008-10-16, 03:46:04,VALID,1002.15,VALID,0,VALID,92.8511,VALID,0,VALID,23.2754,VALID,4,VALID,0.358594,
2008-10-16, 03:47:04,VALID,1002.15,VALID,0,VALID,92.8892,VALID,0,VALID,23.2559,VALID,4,VALID,0.296484,
2008-10-16, 03:48:04,VALID,1002.13,VALID,0,VALID,92.9045,VALID,0,VALID,23.2559,VALID,4,VALID,0.448438,
2008-10-16, 03:49:04,VALID,1002.12,VALID,0,VALID,92.9274,VALID,0,VALID,23.2771,VALID,4,VALID,0.347656,